Location: Bear Valley
(38.4650°N, 120.0390°W)
Time: 09:11:46
(UTC-08:00)

Tiangong 2 - Visible Passes

Search period start: 14 December 2017 00:00
Search period end: 24 December 2017 00:00
Orbit: 386 x 390 km, 42.8° (Epoch: 14 December)

Date Brightness Start Highest point End Pass type
(mag) Time Alt. Az. Time Alt. Az. Time Alt. Az.
19 Dec 3.3 18:23:35 10° S 18:24:58 16° SSE 18:24:58 16° SSE visible
20 Dec 3.8 19:00:45 10° SW 19:01:46 19° SW 19:01:46 19° SW visible
21 Dec 2.1 18:02:37 10° SW 18:05:30 32° SSE 18:06:12 29° ESE visible
22 Dec 2.1 18:40:33 10° WSW 18:42:52 45° W 18:42:52 45° W visible
23 Dec 1.3 17:42:07 10° SW 17:45:14 62° SSE 17:47:11 21° ENE visible
23 Dec 4.5 19:19:09 10° W 19:19:28 12° W 19:19:28 12° W visible
